Cas;Teplota [C];Tlak [hPa];Svetlo [lux];Rychlost vetru [km/h];Smer vetru [stupne]
2019-09-15 00:00:01;10.05;1026.17;7;0;0
2019-09-15 00:00:31;10.14;1026.2;7;0;0
2019-09-15 00:01:02;10.09;1026.22;7;0;0
2019-09-15 00:01:31;9.9;1026.25;8;0;0
2019-09-15 00:02:01;9.81;1026.27;7;0;0
2019-09-15 00:02:31;9.84;1026.26;7;0;0
2019-09-15 00:03:01;9.67;1026.25;7;0;0
2019-09-15 00:03:31;9.74;1026.16;8;0;0
2019-09-15 00:04:02;9.75;1026.24;7;0;0
2019-09-15 00:04:31;9.61;1026.27;7;0;0
2019-09-15 00:05:01;9.68;1026.26;7;0;0
2019-09-15 00:05:31;9.62;1026.24;7;0;0
2019-09-15 00:06:01;9.65;1026.27;8;0;0
2019-09-15 00:06:31;9.63;1026.22;8;0;0
2019-09-15 00:07:01;9.6;1026.21;8;0;0
2019-09-15 00:07:31;9.46;1026.14;8;0;0
2019-09-15 00:08:01;9.49;1026.15;7;0;0
2019-09-15 00:08:32;9.55;1026.14;7;0;0
2019-09-15 00:09:01;9.57;1026.12;7;0;0
2019-09-15 00:09:31;9.56;1026.17;8;0;0
2019-09-15 00:10:01;9.51;1026.18;8;0;0
2019-09-15 00:10:31;9.53;1026.22;8;0;0
2019-09-15 00:11:01;9.67;1026.18;8;0;0
2019-09-15 00:11:31;9.46;1026.18;7;0;0
2019-09-15 00:12:01;9.43;1026.16;8;0;0
2019-09-15 00:12:31;9.49;1026.16;7;0;0
2019-09-15 00:13:01;9.5;1026.13;7;0;0
2019-09-15 00:13:31;9.43;1026.08;7;0;0
2019-09-15 00:14:01;9.41;1026.13;7;0;0
2019-09-15 00:14:31;9.34;1026.1;7;0;0
2019-09-15 00:15:01;9.38;1026.07;6;0;0
2019-09-15 00:15:31;9.42;1026.1;7;0;0
2019-09-15 00:16:02;9.42;1026.14;6;0;0
2019-09-15 00:16:31;9.42;1026.13;6;0;0
2019-09-15 00:17:01;9.53;1026.07;6;0;0
2019-09-15 00:17:31;9.36;1026.08;7;0;0
2019-09-15 00:18:01;9.29;1026.07;7;0;0
2019-09-15 00:18:31;9.33;1026.06;7;0;0
2019-09-15 00:19:01;9.29;1026.06;7;0;0
2019-09-15 00:19:32;9.36;1025.99;7;0;0
2019-09-15 00:20:01;9.33;1026.01;8;0;0
2019-09-15 00:20:31;9.41;1026.02;8;0;0
2019-09-15 00:21:01;9.26;1026.08;8;0;0
2019-09-15 00:21:31;9.32;1025.99;7;0;0
2019-09-15 00:22:01;9.36;1025.99;7;0;0
2019-09-15 00:22:31;9.37;1026.01;7;0;0
2019-09-15 00:23:02;9.38;1026.01;7;0;0
2019-09-15 00:23:31;9.44;1026.02;6;0;0
2019-09-15 00:24:01;9.34;1026.01;7;0;0
2019-09-15 00:24:31;9.45;1026.02;7;0;0
2019-09-15 00:25:01;9.31;1026.05;8;0;0
2019-09-15 00:25:31;9.4;1026.09;7;0;0
2019-09-15 00:26:02;9.43;1026.03;7;0;0
2019-09-15 00:26:31;9.46;1026.08;7;0;0
2019-09-15 00:27:01;9.34;1026.09;8;0;0
2019-09-15 00:27:31;9.31;1026.16;6;0;0
2019-09-15 00:28:01;9.38;1026.12;7;0;0
2019-09-15 00:28:31;9.3;1026.16;7;0;0
2019-09-15 00:29:02;9.36;1026.16;7;0;0
2019-09-15 00:29:31;9.26;1026.18;7;0;0
2019-09-15 00:30:01;9.26;1026.12;7;0;0
2019-09-15 00:30:32;9.35;1026.15;7;0;0
2019-09-15 00:31:01;9.26;1026.11;7;0;0
2019-09-15 00:31:31;9.23;1026.09;6;0;0
2019-09-15 00:32:01;9.32;1026;6;0;0
2019-09-15 00:32:31;9.23;1026.04;7;0;0
2019-09-15 00:33:01;9.14;1026.02;7;0;0
2019-09-15 00:33:31;9.14;1026.07;8;0;0
2019-09-15 00:34:01;9.1;1026.08;7;0;0
2019-09-15 00:34:31;9.21;1026.01;8;0;0
2019-09-15 00:35:01;9.19;1025.97;7;0;0
2019-09-15 00:35:31;9.3;1026.05;7;0;0
2019-09-15 00:36:01;9.26;1025.98;7;0;0
2019-09-15 00:36:31;9.2;1025.96;7;0;0
2019-09-15 00:37:01;9.11;1025.98;8;0;0
2019-09-15 00:37:31;9.04;1026.01;7;0;0
2019-09-15 00:38:01;9.12;1025.97;7;0;0
2019-09-15 00:38:31;9.17;1025.88;7;0;0
2019-09-15 00:39:02;9.19;1025.95;7;0;0
2019-09-15 00:39:31;9.18;1025.92;7;0;0
2019-09-15 00:40:01;9.18;1025.94;7;0;0
2019-09-15 00:40:31;9.12;1025.96;7;0;0
2019-09-15 00:41:01;9.09;1025.9;7;0;0
2019-09-15 00:41:32;9.08;1025.88;7;0;0
2019-09-15 00:42:01;9;1025.84;8;0;0
2019-09-15 00:42:31;9.12;1025.85;7;0;0
2019-09-15 00:43:01;9.01;1025.86;7;0;0
2019-09-15 00:43:31;9.05;1025.82;7;0;0
2019-09-15 00:44:01;9.04;1025.85;6;0;0
2019-09-15 00:44:31;9.18;1025.88;6;0;0
2019-09-15 00:45:01;9.01;1025.87;7;0;0
2019-09-15 00:45:31;8.92;1025.85;7;0;0
2019-09-15 00:46:01;8.97;1025.9;7;0;0
2019-09-15 00:46:31;8.96;1025.86;7;0;0
2019-09-15 00:47:01;8.92;1025.89;8;0;0
2019-09-15 00:47:31;9.01;1025.84;7;0;0
2019-09-15 00:48:01;9.1;1025.91;7;0;0
2019-09-15 00:48:31;9.06;1025.91;7;0;0
2019-09-15 00:49:01;9.05;1025.92;7;0;0
2019-09-15 00:49:31;9.17;1025.87;8;0;0
2019-09-15 00:50:01;9;1025.82;7;0;0
2019-09-15 00:50:32;8.89;1025.81;7;0;0
2019-09-15 00:51:01;8.91;1025.75;6;0;0
2019-09-15 00:51:31;8.88;1025.82;7;0;0
2019-09-15 00:52:01;8.95;1025.84;7;0;0
2019-09-15 00:52:31;9.09;1025.88;6;0;0
2019-09-15 00:53:01;9.07;1025.93;6;0;0
2019-09-15 00:53:31;9.13;1025.95;6;0;0
2019-09-15 00:54:01;9.17;1025.93;6;0;0
2019-09-15 00:54:31;9;1025.82;7;0;0
2019-09-15 00:55:01;8.98;1025.83;7;0;0
2019-09-15 00:55:31;8.83;1025.83;7;0;0
2019-09-15 00:56:01;8.87;1025.87;7;0;0
2019-09-15 00:56:31;8.88;1025.88;6;0;0
2019-09-15 00:57:01;8.93;1025.8;7;0;0
2019-09-15 00:57:31;8.8;1025.83;7;0;0
2019-09-15 00:58:01;8.82;1025.86;7;0;0
2019-09-15 00:58:31;8.78;1025.94;7;0;0
2019-09-15 00:59:01;8.72;1025.97;7;0;0
2019-09-15 00:59:31;8.85;1026.02;7;0;0
2019-09-15 01:00:01;8.76;1026.08;6;0;0
2019-09-15 01:00:31;8.81;1026.07;7;0;0
2019-09-15 01:01:01;8.62;1026.08;7;0;0
2019-09-15 01:01:31;8.58;1025.99;7;0;0
2019-09-15 01:02:01;8.61;1026;6;0;0
2019-09-15 01:02:32;8.83;1025.97;7;0;0
2019-09-15 01:03:01;8.83;1025.92;7;0;0
2019-09-15 01:03:31;8.7;1025.88;7;0;0
2019-09-15 01:04:01;8.62;1025.94;6;0;0
2019-09-15 01:04:31;8.64;1025.96;7;0;0
2019-09-15 01:05:01;8.47;1025.99;7;0;0
2019-09-15 01:05:31;8.61;1026.03;6;0;0
2019-09-15 01:06:01;8.7;1025.98;6;0;0
2019-09-15 01:06:31;8.68;1026.01;6;0;0
2019-09-15 01:07:01;8.7;1026.01;6;0;0
2019-09-15 01:07:31;8.56;1026.07;7;0;0
2019-09-15 01:08:01;8.34;1026.02;7;0;0
2019-09-15 01:08:31;8.57;1026.04;7;0;0
2019-09-15 01:09:01;8.72;1026.03;7;0;0
2019-09-15 01:09:31;8.81;1026.04;8;0;0
2019-09-15 01:10:01;8.85;1026.08;8;0;0
2019-09-15 01:10:31;8.68;1026.07;7;0;0
2019-09-15 01:11:01;8.85;1026.01;8;0;0
2019-09-15 01:11:31;8.68;1025.99;6;0;0
2019-09-15 01:12:01;8.58;1026.01;7;0;0
2019-09-15 01:12:31;8.63;1025.97;7;0;0
2019-09-15 01:13:01;8.68;1025.93;7;0;0
2019-09-15 01:13:32;8.58;1025.94;7;0;0
2019-09-15 01:14:01;8.51;1025.98;7;0;0
2019-09-15 01:14:31;8.38;1025.99;7;0;0
2019-09-15 01:15:01;8.46;1025.95;7;0;0
2019-09-15 01:15:31;8.37;1026.02;7;0;0
2019-09-15 01:16:01;8.53;1026;7;0;0
2019-09-15 01:16:31;8.44;1025.9;7;0;0
2019-09-15 01:17:01;8.35;1025.91;7;0;0
2019-09-15 01:17:31;8.32;1025.9;8;0;0
2019-09-15 01:18:01;8.49;1025.85;8;0;0
2019-09-15 01:18:31;8.41;1025.81;8;0;0
2019-09-15 01:19:01;8.44;1025.82;7;0;0
2019-09-15 01:19:31;8.39;1025.79;8;0;0
2019-09-15 01:20:01;8.37;1025.76;7;0;0
2019-09-15 01:20:31;8.45;1025.76;7;0;0
2019-09-15 01:21:01;8.38;1025.77;7;0;0
2019-09-15 01:21:31;8.39;1025.78;7;0;0
2019-09-15 01:22:01;8.25;1025.75;7;0;0
2019-09-15 01:22:31;8.23;1025.76;7;0;0
2019-09-15 01:23:01;8.18;1025.69;6;0;0
2019-09-15 01:23:31;8.14;1025.69;7;0;0
2019-09-15 01:24:02;8.23;1025.65;7;0;0
2019-09-15 01:24:32;8.22;1025.69;6;0;0
2019-09-15 01:25:01;8.25;1025.75;7;0;0
2019-09-15 01:25:31;8.28;1025.72;7;0;0
2019-09-15 01:26:01;8.22;1025.72;8;0;0
2019-09-15 01:26:31;8.4;1025.69;7;0;0
2019-09-15 01:27:02;8.35;1025.67;7;0;0
2019-09-15 01:27:31;8.46;1025.65;7;0;0
2019-09-15 01:28:01;8.3;1025.67;6;0;0
2019-09-15 01:28:31;8.42;1025.74;7;0;0
2019-09-15 01:29:01;8.34;1025.74;7;0;0
2019-09-15 01:29:31;8.32;1025.68;7;0;0
2019-09-15 01:30:01;8.18;1025.67;7;0;0
2019-09-15 01:30:31;8.27;1025.69;6;0;0
2019-09-15 01:31:02;8.21;1025.67;7;0;0
2019-09-15 01:31:32;8.28;1025.67;7;0;0
2019-09-15 01:32:01;8.24;1025.67;7;0;0
2019-09-15 01:32:31;8.24;1025.67;7;0;0
2019-09-15 01:33:01;8.12;1025.64;7;0;0
2019-09-15 01:33:31;8.19;1025.63;7;0;0
2019-09-15 01:34:01;8.21;1025.64;7;0;0
2019-09-15 01:34:31;8.29;1025.66;7;0;0
2019-09-15 01:35:01;8.25;1025.69;6;0;0
2019-09-15 01:35:31;8.15;1025.66;7;0;0
2019-09-15 01:36:01;8.22;1025.68;7;0;0
2019-09-15 01:36:31;8.3;1025.65;7;0;0
2019-09-15 01:37:01;8.13;1025.65;7;0;0
2019-09-15 01:37:31;8.41;1025.68;7;0;0
2019-09-15 01:38:01;8.24;1025.69;7;0;0
2019-09-15 01:38:31;8.3;1025.65;7;0;0
2019-09-15 01:39:01;8.31;1025.58;7;0;0
2019-09-15 01:39:31;8.34;1025.56;8;0;0
2019-09-15 01:40:01;8.25;1025.52;7;0;0
2019-09-15 01:40:31;8.36;1025.53;7;0;0
2019-09-15 01:41:01;8.29;1025.53;7;0;0
2019-09-15 01:41:31;8.15;1025.53;6;0;0
2019-09-15 01:42:01;8.25;1025.54;7;0;0
2019-09-15 01:42:32;8.06;1025.54;7;0;0
2019-09-15 01:43:02;8.01;1025.52;7;0;0
2019-09-15 01:43:31;8.06;1025.53;7;0;0
2019-09-15 01:44:01;7.96;1025.53;7;0;0
2019-09-15 01:44:31;8.17;1025.52;7;0;0
2019-09-15 01:45:01;8.15;1025.52;7;0;0
2019-09-15 01:45:31;8.15;1025.51;7;0;0
2019-09-15 01:46:01;8.13;1025.48;7;0;0
2019-09-15 01:46:31;7.96;1025.49;7;0;0
2019-09-15 01:47:01;8;1025.5;7;0;0
2019-09-15 01:47:32;8.06;1025.49;6;0;0
2019-09-15 01:48:01;8.13;1025.52;7;0;0
2019-09-15 01:48:31;8.08;1025.51;7;0;0
2019-09-15 01:49:01;8.11;1025.52;5;0;0
2019-09-15 01:49:31;8.13;1025.53;5;0;0
2019-09-15 01:50:01;8.17;1025.54;6;0;0
2019-09-15 01:50:31;8.18;1025.52;7;0;0
2019-09-15 01:51:01;8.19;1025.53;6;0;0
2019-09-15 01:51:31;8.13;1025.5;7;0;0
2019-09-15 01:52:01;8.13;1025.5;7;0;0
2019-09-15 01:52:31;8.07;1025.5;5;0;0
2019-09-15 01:53:02;8.16;1025.49;5;0;0
2019-09-15 01:53:31;8.18;1025.54;7;0;0
2019-09-15 01:54:01;8.09;1025.51;7;0;0
2019-09-15 01:54:31;8.1;1025.51;7;0;0
2019-09-15 01:55:01;8.05;1025.53;7;0;0
2019-09-15 01:55:31;8.18;1025.54;7;0;0
2019-09-15 01:56:01;8.08;1025.52;6;0;0
2019-09-15 01:56:31;8.19;1025.5;6;0;0
2019-09-15 01:57:01;8.18;1025.49;5;0;0
2019-09-15 01:57:31;8.18;1025.5;6;0;0
2019-09-15 01:58:01;8.21;1025.5;6;0;0
2019-09-15 01:58:32;8.19;1025.53;7;0;0
2019-09-15 01:59:01;8.17;1025.52;7;0;0
2019-09-15 01:59:31;8.06;1025.51;6;0;0
2019-09-15 02:00:01;8.05;1025.48;6;0;0
2019-09-15 02:00:31;8.07;1025.49;7;0;0
2019-09-15 02:01:01;8.01;1025.5;7;0;0
2019-09-15 02:01:31;8.06;1025.49;7;0;0
2019-09-15 02:02:01;8.12;1025.49;7;0;0
2019-09-15 02:02:31;7.83;1025.48;7;0;0
2019-09-15 02:03:01;7.94;1025.49;6;0;0
2019-09-15 02:03:31;8.11;1025.48;7;0;0
2019-09-15 02:04:01;8;1025.47;7;0;0
2019-09-15 02:04:33;7.98;1025.48;8;0;0
2019-09-15 02:05:02;7.97;1025.48;7;0;0
2019-09-15 02:05:31;8.07;1025.49;6;0;0
2019-09-15 02:06:01;8.08;1025.48;6;0;0
2019-09-15 02:06:31;7.86;1025.48;7;0;0
2019-09-15 02:07:01;7.83;1025.46;7;0;0
2019-09-15 02:07:31;7.96;1025.45;6;0;0
2019-09-15 02:08:01;8;1025.45;6;0;0
2019-09-15 02:08:31;7.85;1025.47;7;0;0
2019-09-15 02:09:01;7.91;1025.48;7;0;0
2019-09-15 02:09:31;8.04;1025.49;7;0;0
2019-09-15 02:10:01;7.99;1025.47;7;0;0
2019-09-15 02:10:32;8.02;1025.46;7;0;0
2019-09-15 02:11:02;8.01;1025.45;7;0;0
2019-09-15 02:11:31;8.09;1025.46;6;0;0
2019-09-15 02:12:01;7.81;1025.45;6;0;0
2019-09-15 02:12:31;7.79;1025.45;7;0;0
2019-09-15 02:13:01;7.8;1025.45;7;0;0
2019-09-15 02:13:31;7.86;1025.45;7;0;0
2019-09-15 02:14:01;7.86;1025.46;7;0;0
2019-09-15 02:14:31;7.74;1025.45;7;0;0
2019-09-15 02:15:01;7.86;1025.47;7;0;0
2019-09-15 02:15:31;7.93;1025.47;6;0;0
2019-09-15 02:16:01;7.9;1025.46;7;0;0
2019-09-15 02:16:31;7.97;1025.46;7;0;0
2019-09-15 02:17:01;8.01;1025.46;8;0;0
2019-09-15 02:17:31;8.03;1025.48;7;0;0
2019-09-15 02:18:01;8.02;1025.47;6;0;0
2019-09-15 02:18:31;7.98;1025.46;7;0;0
2019-09-15 02:19:01;7.95;1025.45;6;0;0
2019-09-15 02:19:31;7.92;1025.45;7;0;0
2019-09-15 02:20:01;7.84;1025.44;7;0;0
2019-09-15 02:20:31;7.92;1025.44;6;0;0
2019-09-15 02:21:01;7.88;1025.44;7;0;0
2019-09-15 02:21:32;7.91;1025.45;7;0;0
2019-09-15 02:22:01;7.92;1025.45;7;0;0
2019-09-15 02:22:31;7.92;1025.46;7;0;0
2019-09-15 02:23:01;7.86;1025.45;7;0;0
2019-09-15 02:23:31;7.86;1025.45;6;0;0
2019-09-15 02:24:01;7.8;1025.44;7;0;0
2019-09-15 02:24:31;7.99;1025.44;7;0;0
2019-09-15 02:25:01;7.89;1025.44;6;0;0
2019-09-15 02:25:31;7.83;1025.44;6;0;0
2019-09-15 02:26:01;7.94;1025.44;7;0;0
2019-09-15 02:26:31;7.72;1025.44;6;0;0
2019-09-15 02:27:02;7.73;1025.44;8;0;0
2019-09-15 02:27:31;7.75;1025.44;6;0;0
2019-09-15 02:28:01;7.7;1025.44;7;0;0
2019-09-15 02:28:31;7.87;1025.44;7;0;0
2019-09-15 02:29:01;7.68;1025.44;7;0;0
2019-09-15 02:29:32;7.71;1025.44;6;0;0
2019-09-15 02:30:01;7.61;1025.44;7;0;0
2019-09-15 02:30:31;7.79;1025.44;7;0;0
2019-09-15 02:31:01;7.78;1025.44;7;0;0
2019-09-15 02:31:31;7.78;1025.44;7;0;0
2019-09-15 02:32:01;7.77;1025.45;7;0;0
2019-09-15 02:32:31;7.92;1025.45;6;0;0
2019-09-15 02:33:01;7.81;1025.44;7;0;0
2019-09-15 02:33:31;7.8;1025.44;7;0;0
2019-09-15 02:34:01;7.71;1025.44;7;0;0
2019-09-15 02:34:31;7.78;1025.44;7;0;0
2019-09-15 02:35:01;7.78;1025.44;6;0;0
2019-09-15 02:35:31;7.67;1025.45;7;0;0
2019-09-15 02:36:01;7.62;1025.45;6;0;0
2019-09-15 02:36:31;7.56;1025.44;7;0;0
2019-09-15 02:37:01;7.7;1025.44;7;0;0
2019-09-15 02:37:31;7.72;1025.44;7;0;0
2019-09-15 02:38:02;7.67;1025.44;7;0;0
2019-09-15 02:38:31;7.62;1025.43;6;0;0
2019-09-15 02:39:01;7.59;1025.43;5;0;0
2019-09-15 02:39:31;7.56;1025.44;6;0;0
2019-09-15 02:40:01;7.59;1025.44;6;0;0
2019-09-15 02:40:32;7.71;1025.44;6;0;0
2019-09-15 02:41:01;7.54;1025.44;5;0;0
2019-09-15 02:41:31;7.32;1025.44;6;0;0
2019-09-15 02:42:01;7.64;1025.44;6;0;0
2019-09-15 02:42:31;7.61;1025.44;6;0;0
2019-09-15 02:43:01;7.42;1025.44;7;0;0
2019-09-15 02:43:31;7.44;1025.44;6;0;0
2019-09-15 02:44:01;7.55;1025.44;6;0;0
2019-09-15 02:44:31;7.57;1025.44;7;0;0
2019-09-15 02:45:01;7.6;1025.43;6;0;0
2019-09-15 02:45:31;7.61;1025.42;6;0;0
2019-09-15 02:46:01;7.58;1025.43;6;0;0
2019-09-15 02:46:31;7.52;1025.42;7;0;0
2019-09-15 02:47:01;7.51;1025.43;7;0;0
2019-09-15 02:47:31;7.49;1025.43;7;0;0
2019-09-15 02:48:03;7.48;1025.44;7;0;0
2019-09-15 02:48:31;7.62;1025.42;7;0;0
2019-09-15 02:49:01;7.48;1025.43;6;0;0
2019-09-15 02:49:31;7.49;1025.43;6;0;0
2019-09-15 02:50:01;7.45;1025.44;6;0;0
2019-09-15 02:50:31;7.5;1025.42;6;0;0
2019-09-15 02:51:01;7.39;1025.42;6;0;0
2019-09-15 02:51:32;7.28;1025.43;6;0;0
2019-09-15 02:52:01;7.43;1025.43;7;0;0
2019-09-15 02:52:31;7.46;1025.43;6;0;0
2019-09-15 02:53:01;7.4;1025.42;6;0;0
2019-09-15 02:53:31;7.39;1025.42;6;0;0
2019-09-15 02:54:01;7.46;1025.43;7;0;0
2019-09-15 02:54:31;7.3;1025.43;7;0;0
2019-09-15 02:55:01;7.48;1025.42;6;0;0
2019-09-15 02:55:31;7.33;1025.43;6;0;0
2019-09-15 02:56:02;7.35;1025.43;6;0;0
2019-09-15 02:56:31;7.38;1025.41;6;0;0
2019-09-15 02:57:01;7.38;1025.41;7;0;0
2019-09-15 02:57:31;7.26;1025.42;7;0;0
2019-09-15 02:58:01;7.44;1025.43;7;0;0
2019-09-15 02:58:31;7.22;1025.43;6;0;0
2019-09-15 02:59:01;7.36;1025.44;7;0;0
2019-09-15 02:59:31;7.34;1025.44;7;0;0
2019-09-15 03:00:01;7.31;1025.42;7;0;0
2019-09-15 03:00:31;7.3;1025.43;6;0;0
2019-09-15 03:01:01;7.37;1025.43;7;0;0
2019-09-15 03:01:32;7.33;1025.43;7;0;0
2019-09-15 03:02:01;7.28;1025.43;6;0;0
2019-09-15 03:02:31;7.34;1025.44;7;0;0
2019-09-15 03:03:01;7.37;1025.44;7;0;0
2019-09-15 03:03:32;7.21;1025.44;6;0;0
2019-09-15 03:04:01;7.32;1025.44;6;0;0
2019-09-15 03:04:31;7.29;1025.44;6;0;0
2019-09-15 03:05:02;7.29;1025.44;6;0;0
2019-09-15 03:05:31;7.21;1025.44;7;0;0
2019-09-15 03:06:01;7.24;1025.44;6;0;0
2019-09-15 03:06:31;7.23;1025.44;7;0;0
2019-09-15 03:07:01;7.25;1025.44;6;0;0
2019-09-15 03:07:31;7.35;1025.44;6;0;0
2019-09-15 03:08:01;7.31;1025.44;6;0;0
2019-09-15 03:08:31;7.07;1025.44;7;0;0
2019-09-15 03:09:01;7.36;1025.44;6;0;0
2019-09-15 03:09:31;7.27;1025.43;6;0;0
2019-09-15 03:10:01;7.26;1025.43;6;0;0
2019-09-15 03:10:31;7.36;1025.43;6;0;0
2019-09-15 03:11:01;7.26;1025.44;7;0;0
2019-09-15 03:11:31;7.4;1025.42;6;0;0
2019-09-15 03:12:01;7.19;1025.43;6;0;0
2019-09-15 03:12:31;7.28;1025.42;6;0;0
2019-09-15 03:13:01;7.16;1025.43;6;0;0
2019-09-15 03:13:32;7.3;1025.42;8;0;0
2019-09-15 03:14:01;7.42;1025.41;6;0;0
2019-09-15 03:14:31;7.2;1025.42;6;0;0
2019-09-15 03:15:02;7.31;1025.43;7;0;0
2019-09-15 03:15:31;7.34;1025.43;7;0;0
2019-09-15 03:16:01;7.12;1025.44;8;0;0
2019-09-15 03:16:31;7.3;1025.44;6;0;0
2019-09-15 03:17:01;7.32;1025.43;6;0;0
2019-09-15 03:17:31;7.36;1025.42;6;0;0
2019-09-15 03:18:01;7.22;1025.38;6;0;0
2019-09-15 03:18:31;7.28;1025.4;7;0;0
2019-09-15 03:19:01;7.12;1025.39;7;0;0
2019-09-15 03:19:31;7.13;1025.38;7;0;0
2019-09-15 03:20:01;7.19;1025.4;6;0;0
2019-09-15 03:20:31;7.18;1025.39;7;0;0
2019-09-15 03:21:01;7.14;1025.41;6;0;0
2019-09-15 03:21:31;7.07;1025.41;5;0;0
2019-09-15 03:22:01;7.07;1025.34;6;0;0
2019-09-15 03:22:31;7.17;1025.35;6;0;0
2019-09-15 03:23:01;7.18;1025.39;7;0;0
2019-09-15 03:23:31;7.17;1025.31;7;0;0
2019-09-15 03:24:01;7.14;1025.35;6;0;0
2019-09-15 03:24:32;7.05;1025.32;6;0;0
2019-09-15 03:25:02;7.07;1025.29;5;0;0
2019-09-15 03:25:31;7.24;1025.32;6;0;0
2019-09-15 03:26:01;7.16;1025.37;7;0;0
2019-09-15 03:26:31;7.15;1025.38;6;0;0
2019-09-15 03:27:01;7.26;1025.38;7;0;0
2019-09-15 03:27:31;7.11;1025.34;7;0;0
2019-09-15 03:28:01;7.13;1025.33;6;0;0
2019-09-15 03:28:31;7.09;1025.3;6;0;0
2019-09-15 03:29:01;7.13;1025.29;5;0;0
2019-09-15 03:29:31;7.1;1025.27;6;0;0
2019-09-15 03:30:01;7.1;1025.26;6;0;0
2019-09-15 03:30:31;7.11;1025.29;6;0;0
2019-09-15 03:31:02;7.27;1025.32;6;0;0
2019-09-15 03:31:31;7.17;1025.35;6;0;0
2019-09-15 03:32:01;7.2;1025.35;7;0;0
2019-09-15 03:32:31;7.16;1025.3;8;0;0
2019-09-15 03:33:01;6.98;1025.33;7;0;0
2019-09-15 03:33:31;7.04;1025.33;5;0;0
2019-09-15 03:34:01;6.9;1025.34;6;0;0
2019-09-15 03:34:31;6.88;1025.31;7;0;0
2019-09-15 03:35:01;7.02;1025.35;7;0;0
2019-09-15 03:35:32;7.1;1025.31;7;0;0
2019-09-15 03:36:01;7.06;1025.25;7;0;0
2019-09-15 03:36:31;7.06;1025.25;6;0;0
2019-09-15 03:37:01;7.03;1025.29;5;0;0
2019-09-15 03:37:31;6.96;1025.24;6;0;0
2019-09-15 03:38:01;6.93;1025.2;6;0;0
2019-09-15 03:38:31;6.95;1025.21;6;0;0
2019-09-15 03:39:01;6.89;1025.19;6;0;0
2019-09-15 03:39:31;7;1025.14;7;0;0
2019-09-15 03:40:01;6.98;1025.11;6;0;0
2019-09-15 03:40:31;7.02;1025.15;6;0;0
2019-09-15 03:41:02;6.92;1025.17;6;0;0
2019-09-15 03:41:31;6.93;1025.15;5;0;0
2019-09-15 03:42:01;6.96;1025.1;6;0;0
2019-09-15 03:42:31;7.03;1025;6;0;0
2019-09-15 03:43:01;7.02;1025.02;6;0;0
2019-09-15 03:43:31;7;1024.97;6;0;0
2019-09-15 03:44:01;7.05;1025;6;0;0
2019-09-15 03:44:31;7;1025.01;5;0;0
2019-09-15 03:45:01;6.97;1025.06;6;0;0
2019-09-15 03:45:31;6.85;1025.05;5;0;0
2019-09-15 03:46:01;6.95;1024.94;6;0;0
2019-09-15 03:46:32;6.99;1025.03;6;0;0
2019-09-15 03:47:00;7.05;1025.06;6;0;0
2019-09-15 03:47:31;6.93;1025;7;0;0
2019-09-15 03:48:01;6.91;1024.97;6;0;0
2019-09-15 03:48:31;6.77;1024.91;6;0;0
2019-09-15 03:49:02;6.9;1024.95;7;0;0
2019-09-15 03:49:31;6.93;1024.97;6;0;0
2019-09-15 03:50:01;6.88;1024.98;6;0;0
2019-09-15 03:50:31;6.95;1025.01;6;0;0
2019-09-15 03:51:01;6.93;1024.97;6;0;0
2019-09-15 03:51:31;6.96;1024.96;6;0;0
2019-09-15 03:52:02;7.05;1024.88;6;0;0
2019-09-15 03:52:31;7.02;1024.89;7;0;0
2019-09-15 03:53:01;6.87;1024.87;7;0;0
2019-09-15 03:53:31;6.82;1024.89;7;0;0
2019-09-15 03:54:01;6.82;1024.89;6;0;0
2019-09-15 03:54:31;6.86;1024.92;7;0;0
2019-09-15 03:55:01;6.85;1024.91;7;0;0
2019-09-15 03:55:31;6.82;1024.93;6;0;0
2019-09-15 03:56:01;6.9;1024.95;6;0;0
2019-09-15 03:56:31;6.92;1024.87;6;0;0
2019-09-15 03:57:01;6.98;1024.86;5;0;0
2019-09-15 03:57:32;7.03;1024.88;5;0;0
2019-09-15 03:58:01;7.01;1024.92;7;0;0
2019-09-15 03:58:31;7;1024.93;5;0;0
2019-09-15 03:59:01;6.94;1024.92;6;0;0
2019-09-15 03:59:31;6.96;1024.95;6;0;0
2019-09-15 04:00:01;6.87;1024.94;6;0;0
2019-09-15 04:00:31;6.77;1024.94;5;0;0
2019-09-15 04:01:01;6.72;1024.92;5;0;0
2019-09-15 04:01:31;6.92;1024.92;6;0;0
2019-09-15 04:02:00;7;1024.87;6;0;0
2019-09-15 04:02:31;6.98;1024.85;6;0;0
2019-09-15 04:03:01;7;1024.93;6;0;0
2019-09-15 04:03:31;6.89;1024.93;6;0;0
2019-09-15 04:04:01;6.97;1024.93;5;0;0
2019-09-15 04:04:31;6.89;1024.9;5;0;0
2019-09-15 04:05:01;6.82;1024.89;5;0;0
2019-09-15 04:05:31;6.89;1024.86;6;0;0
2019-09-15 04:06:01;6.87;1024.9;5;0;0
2019-09-15 04:06:31;6.93;1024.87;5;0;0
2019-09-15 04:07:01;6.89;1024.94;6;0;0
2019-09-15 04:07:31;6.95;1024.96;6;0;0
2019-09-15 04:08:01;6.88;1024.99;6;0;0
2019-09-15 04:08:32;6.74;1025.05;6;0;0
2019-09-15 04:09:01;6.77;1025.02;5;0;0
2019-09-15 04:09:31;6.8;1025.02;5;0;0
2019-09-15 04:10:01;6.81;1025.02;7;0;0
2019-09-15 04:10:31;6.82;1025;6;0;0
2019-09-15 04:11:01;6.89;1024.99;6;0;0
2019-09-15 04:11:31;6.91;1024.97;7;0;0
2019-09-15 04:12:01;6.98;1024.92;7;0;0
2019-09-15 04:12:31;6.79;1025.01;6;0;0
2019-09-15 04:13:01;6.68;1024.93;6;0;0
2019-09-15 04:13:31;6.83;1024.95;5;0;0
2019-09-15 04:14:01;6.82;1025.01;6;0;0
2019-09-15 04:14:31;6.84;1024.99;7;0;0
2019-09-15 04:15:01;6.78;1024.92;6;0;0
2019-09-15 04:15:31;6.78;1024.93;6;0;0
2019-09-15 04:16:01;6.68;1024.93;6;0;0
2019-09-15 04:16:31;6.84;1024.92;6;0;0
2019-09-15 04:17:01;6.81;1024.9;6;0;0
2019-09-15 04:17:31;6.61;1024.91;6;0;0
2019-09-15 04:18:01;6.61;1025;6;0;0
2019-09-15 04:18:31;6.6;1024.97;6;0;0
2019-09-15 04:19:01;6.83;1025;6;0;0
2019-09-15 04:19:32;6.71;1024.97;6;0;0
2019-09-15 04:20:02;6.72;1024.94;7;0;0
2019-09-15 04:20:31;6.68;1025;6;0;0
2019-09-15 04:21:01;6.66;1024.97;6;0;0
2019-09-15 04:21:31;6.69;1024.98;6;0;0
2019-09-15 04:22:01;6.65;1025.02;6;0;0
2019-09-15 04:22:31;6.6;1025.01;7;0;0
2019-09-15 04:23:01;6.48;1025.02;6;0;0
2019-09-15 04:23:31;6.56;1025;6;0;0
2019-09-15 04:24:01;6.68;1025.11;6;0;0
2019-09-15 04:24:31;6.57;1025.15;6;0;0
2019-09-15 04:25:01;6.64;1025.14;6;0;0
2019-09-15 04:25:31;6.5;1025.11;6;0;0
2019-09-15 04:26:01;6.57;1025.1;6;0;0
2019-09-15 04:26:31;6.69;1025.09;5;0;0
2019-09-15 04:27:01;6.85;1025.11;5;0;0
2019-09-15 04:27:31;6.75;1025.12;5;0;0
2019-09-15 04:28:01;6.67;1025.05;6;0;0
2019-09-15 04:28:31;6.59;1025.02;6;0;0
2019-09-15 04:29:01;6.73;1024.89;6;0;0
2019-09-15 04:29:31;6.75;1024.81;6;0;0
2019-09-15 04:30:01;6.74;1024.84;6;0;0
2019-09-15 04:30:32;6.7;1024.86;5;0;0
2019-09-15 04:31:01;6.59;1024.86;6;0;0
2019-09-15 04:31:31;6.7;1024.84;6;0;0
2019-09-15 04:32:01;6.6;1024.81;6;0;0
2019-09-15 04:32:31;6.66;1024.81;6;0;0
2019-09-15 04:33:02;6.57;1024.83;6;0;0
2019-09-15 04:33:31;6.69;1024.85;5;0;0
2019-09-15 04:34:01;6.6;1024.86;6;0;0
2019-09-15 04:34:31;6.64;1024.81;5;0;0
2019-09-15 04:35:01;6.68;1024.81;6;0;0
2019-09-15 04:35:31;6.8;1024.76;6;0;0
2019-09-15 04:36:01;6.64;1024.73;6;0;0
2019-09-15 04:36:31;6.65;1024.69;6;0;0
2019-09-15 04:37:01;6.68;1024.7;6;0;0
2019-09-15 04:37:31;6.62;1024.7;6;0;0
2019-09-15 04:38:01;6.58;1024.68;6;0;0
2019-09-15 04:38:31;6.72;1024.7;5;0;0
2019-09-15 04:39:01;6.87;1024.68;6;0;0
2019-09-15 04:39:31;6.8;1024.7;6;0;0
2019-09-15 04:40:01;6.74;1024.67;6;0;0
2019-09-15 04:40:31;6.65;1024.67;6;0;0
2019-09-15 04:41:01;6.68;1024.63;5;0;0
2019-09-15 04:41:32;6.62;1024.64;6;0;0
2019-09-15 04:42:01;6.65;1024.62;5;0;0
2019-09-15 04:42:31;6.75;1024.61;6;0;0
2019-09-15 04:43:01;6.79;1024.61;6;0;0
2019-09-15 04:43:31;6.81;1024.58;5;0;0
2019-09-15 04:44:01;6.78;1024.56;6;0;0
2019-09-15 04:44:31;6.66;1024.58;5;0;0
2019-09-15 04:45:01;6.67;1024.56;6;0;0
2019-09-15 04:45:31;6.59;1024.56;6;0;0
2019-09-15 04:46:01;6.55;1024.57;5;0;0
2019-09-15 04:46:31;6.51;1024.63;6;0;0
2019-09-15 04:47:01;6.53;1024.62;6;0;0
2019-09-15 04:47:31;6.64;1024.58;6;0;0
2019-09-15 04:48:02;6.52;1024.58;4;0;0
2019-09-15 04:48:31;6.62;1024.56;5;0;0
2019-09-15 04:49:01;6.61;1024.53;5;0;0
2019-09-15 04:49:31;6.7;1024.56;6;0;0
2019-09-15 04:50:01;6.67;1024.57;6;0;0
2019-09-15 04:50:31;6.68;1024.56;6;0;0
2019-09-15 04:51:01;6.53;1024.56;6;0;0
2019-09-15 04:51:31;6.61;1024.58;7;0;0
2019-09-15 04:52:01;6.57;1024.58;6;0;0
2019-09-15 04:52:32;6.5;1024.55;5;0;0
2019-09-15 04:53:01;6.51;1024.52;6;0;0
2019-09-15 04:53:31;6.56;1024.55;5;0;0
2019-09-15 04:54:01;6.5;1024.56;5;0;0
2019-09-15 04:54:31;6.41;1024.54;6;0;0
2019-09-15 04:55:01;6.36;1024.54;6;0;0
2019-09-15 04:55:31;6.42;1024.54;6;0;0
2019-09-15 04:56:01;6.45;1024.52;5;0;0
2019-09-15 04:56:31;6.63;1024.52;5;0;0
2019-09-15 04:57:01;6.57;1024.52;5;0;0
2019-09-15 04:57:31;6.49;1024.5;6;0;0
2019-09-15 04:58:01;6.5;1024.54;6;0;0
2019-09-15 04:58:31;6.5;1024.55;6;0;0
2019-09-15 04:59:00;6.49;1024.53;5;0;0
2019-09-15 04:59:31;6.58;1024.56;6;0;0
2019-09-15 05:00:01;6.66;1024.54;6;0;0
2019-09-15 05:00:31;6.63;1024.54;6;0;0
2019-09-15 05:01:01;6.52;1024.53;6;0;0
2019-09-15 05:01:31;6.45;1024.52;5;0;0
2019-09-15 05:02:01;6.5;1024.53;6;0;0
2019-09-15 05:02:31;6.58;1024.54;6;0;0
2019-09-15 05:03:01;6.53;1024.55;7;0;0
2019-09-15 05:03:32;6.51;1024.51;6;0;0
2019-09-15 05:04:01;6.54;1024.54;6;0;0
2019-09-15 05:04:31;6.54;1024.58;5;0;0
2019-09-15 05:05:01;6.48;1024.57;5;0;0
2019-09-15 05:05:31;6.44;1024.56;5;0;0
2019-09-15 05:06:01;6.61;1024.56;6;0;0
2019-09-15 05:06:31;6.52;1024.55;6;0;0
2019-09-15 05:07:01;6.53;1024.56;6;0;0
2019-09-15 05:07:31;6.69;1024.57;6;0;0
2019-09-15 05:08:01;6.66;1024.54;5;0;0